Location: Bailen
(14.1842°N, 120.7958°E)
Time: 23:01:05
(UTC+00:00)

Meteor 1-21 - Visible Passes

Search period start: 18 April 2026 00:00
Search period end: 28 April 2026 00:00
Orbit: 843 x 887 km, 81.2° (Epoch: 18 April)

Date Brightness Start Highest point End Pass type
(mag) Time Alt. Az. Time Alt. Az. Time Alt. Az.
18 Apr 6.6 20:32:08 10° SE 20:36:47 25° E 20:41:23 10° NE visible
19 Apr 6.6 20:24:17 10° SE 20:28:54 25° E 20:33:31 10° NE visible
20 Apr 6.5 20:16:25 10° SE 20:21:03 25° E 20:25:38 10° NE visible
21 Apr 6.5 20:08:35 10° SE 20:13:12 25° E 20:17:46 10° NE visible
22 Apr 6.4 20:00:44 10° SE 20:05:20 25° E 20:09:54 10° NE visible
23 Apr 6.4 19:52:52 10° SE 19:57:29 25° E 20:02:02 10° NE visible
24 Apr 6.4 19:45:01 10° SE 19:49:37 25° E 19:54:10 10° NE visible
25 Apr 6.3 19:37:10 10° SE 19:41:46 25° E 19:46:19 10° NE visible
26 Apr 6.3 19:29:19 10° SE 19:33:54 25° E 19:38:26 10° NE visible
26 Apr 5.3 21:12:17 10° SW 21:16:51 24° W 21:21:24 10° NNW visible
27 Apr 6.3 19:21:28 10° SE 19:26:02 25° E 19:30:34 10° NE visible
27 Apr 5.3 21:04:25 10° SW 21:08:59 24° W 21:13:33 10° NNW visible
